IRIDIUM 33 DEB

Satellite information

Favourite Embed

Satellite Type and Status

DEBRISIN ORBIT

Key statistics

Satellite IRIDIUM 33 DEB at a glance.

Uptime

10156

Days in orbit

Revolutions

≈ 14.3

Per day

Orbit

LEO

Low Earth Orbit

Inclination

86.3

Latest

Satellite identification and parameters

Extended collection of information and parameters for IRIDIUM 33 DEB.

Object identification

Identified? True

Debris? True

Object name: IRIDIUM 33 DEB

International designator: 1997-051ZC

Object number (NORAD): 38228

Object ID (CCSDS): 38228

Country: UNITED STATES OF AMERICA (US)

Current information (Y/N): Y

RCS size: SMALL

Orbital parameters

Period: 100.917 minutes

Inclination: 86.2959 deg

SMA: 7180.196 km

Apoapsis: 848.319 km

Periapsis: 755.802 km

RAAN: 117.1908 deg

Eccentricy: 0.0064425

Argument of periapsis: 354.3877 deg

Mean anomaly: 19.5627 deg

Mean motion: 14.26915761 rev/day

Mean motion (dot): 0.00000797 rev/day2

B* drag term: 0.00031349 1/REarth

Two-line elements (TLE)

Creation date: July 4, 2025, 6:39 p.m.

Reference frame: TEME

Reference center: EARTH

Epoch: July 4, 2025, 1:46 a.m. UTC

TLE line 0: 0 IRIDIUM 33 DEB

TLE line 1: 1 38228U 97051ZC 25185.07416618 .00000797 00000-0 31349-3 0 9995

TLE line 2: 2 38228 86.2959 117.1908 0064425 354.3877 19.5627 14.26915761824768

Live tracking on map

Real-time ground track for satellite IRIDIUM 33 DEB.

In-orbit conjunctions

A list of the most updated potential collisions computed for object IRIDIUM 33 DEB.

Target Orbit TCA Probability of collision Miss distance Type
COSMOS 1867 LEO 2025-03-16 12:22:14 0.0001177758 596.0 (m) PAYLOAD
CZ-6A DEB LEO 2024-10-10 11:17:02 0.0001996216 742.0 (m) DEBRIS
METEOR 1-19 LEO 2024-06-25 00:58:15 0.0001369242 463.0 (m) PAYLOAD

Associated space launch

Iridium provides global mobile telecommunications services using a constellation of 66 low earth orbit satellites in a 86.4° inclined orbit. Although 77 satellites were originally envisioned for the system and spawned the name based on the 77th element in the periodic table, the system has been scaled back. Motorola's Satellite Communications Group designed and manufactured the Iridium satellites with Lockheed Martin providing the LM-700A spacecraft buses.

IRIDIUM 33 DEB was lifted into orbit during the mission ‘Proton-K/17S40 | Iridium 27 to 33’, on board a Proton-K/17S40 space rocket.

The launch took place on Sept. 14, 1997, 1:36 a.m. from 81/23 (81L).

For more information about the launch, click the button.

Launch to space Proton-K/17S40 | Iridium 27 to 33
Proton-K/17S40 | Iridium 27 to 33

Agency: N/A

Status: Launch Successful

Launch date: Sept. 14, 1997, 1:36 a.m. UTC

Rocket: Proton-K/17S40

Launch pad: 81/23 (81L)

Location: Baikonur Cosmodrome, Republic of Kazakhstan

...

Latest news about this satellite

There are no fresh news available about this satellite. Check back as we update our databases every day.


Newsletter sign-up

Weekly statistics, charts and insights to help you stay on top of the space industry.